EW6030 Weather Reports


Display with metric or nautical units.
time (UTC)temp
F
wind
direction
speed
MPH
gust
MPH
rain 1hr
in
rain 24hr
in
rain mn
in
humidity
%
barometer
mb
20260904151551 69 136 0.0 0.0 0.00 0.00 0.00 71 1010.5
20260904144552 69 241 1.0 0.0 0.00 0.00 0.00 72 1011.1
20260904143048 70 78 0.0 0.0 0.00 0.00 0.00 73 1011.7
20260904141548 70 145 0.0 0.0 0.00 0.00 0.00 73 1011.4
20260904140052 71 252 0.0 0.0 0.00 0.00 0.00 74 1011.1
20260904134548 71 156 0.0 0.0 0.00 0.00 0.00 74 1010.5
20260904133042 71 213 1.0 0.0 0.00 0.00 0.00 73 1011.4
20260904131539 71 303 2.0 0.0 0.00 0.00 0.00 72 1011.4
20260904130053 72 214 1.0 0.0 0.00 0.00 0.00 72 1010.3
20260904124535 73 166 1.0 0.0 0.00 0.00 0.00 71 1009.9
20260904123031 74 187 2.0 0.0 0.00 0.00 0.00 71 1009.5
20260904121529 74 260 0.0 0.0 0.00 0.00 0.00 71 1008.3
20260904120037 74 260 0.0 0.0 0.00 0.00 0.00 71 1008.2
20260904114528 73 260 0.0 0.0 0.00 0.00 0.00 71 1007.9
20260904113033 73 260 0.0 0.0 0.00 0.00 0.00 71 1007.6
20260904111527 73 260 0.0 0.0 0.00 0.00 0.00 71 1007.3
20260904110026 73 260 0.0 0.0 0.00 0.00 0.00 71 1007.3
20260904104529 73 260 0.0 0.0 0.00 0.00 0.00 71 1007.5
20260904103025 73 260 0.0 0.0 0.00 0.00 0.00 71 1007.4
20260904101527 73 260 0.0 0.0 0.00 0.00 0.00 71 1007.6
20260904100024 73 260 0.0 0.0 0.00 0.00 0.00 71 1007.6
20260904094523 74 260 0.0 0.0 0.00 0.00 0.00 71 1007.8
20260904093026 74 260 0.0 0.0 0.00 0.00 0.00 72 1007.9
20260904091523 74 260 0.0 0.0 0.00 0.00 0.00 72 1007.8
20260904090028 74 260 0.0 0.0 0.00 0.00 0.00 72 1007.8
20260904084522 74 260 0.0 0.0 0.00 0.00 0.00 72 1007.7
20260904083029 74 261 0.0 0.0 0.00 0.00 0.00 71 1007.9
20260904081521 74 261 0.0 0.0 0.00 0.00 0.00 72 1007.9
20260904080021 74 261 0.0 0.0 0.00 0.00 0.00 72 1008.0
20260904074520 73 217 0.0 0.0 0.00 0.00 0.00 72 1008.3
20260904073020 73 257 0.0 0.0 0.00 0.00 0.00 72 1008.1
20260904071522 73 250 0.0 0.0 0.00 0.00 0.00 72 1007.7
20260904070020 73 249 0.0 0.0 0.00 0.00 0.00 72 1007.5
20260904064517 74 233 0.0 0.0 0.00 0.00 0.00 72 1007.4
20260904063016 74 184 0.0 0.0 0.00 0.00 0.00 72 1007.6
20260904061534 74 247 0.0 0.0 0.00 0.00 0.00 73 1007.6
20260904060012 74 274 0.0 0.0 0.00 0.00 0.00 73 1007.8
20260904054517 75 226 0.0 0.0 0.00 0.00 0.00 72 1008.4
20260904053005 76 226 0.0 0.0 0.00 0.00 0.00 72 1008.6
20260904051503 77 247 0.0 0.0 0.00 0.00 0.00 71 1008.7
20260904050001 77 247 0.0 0.0 0.00 0.00 0.00 71 1008.7
20260904044602 77 247 0.0 0.0 0.00 0.00 0.00 71 1008.6
20260904043108 77 247 0.0 0.0 0.00 0.00 0.00 71 1008.5
20260904041559 77 247 0.0 0.0 0.00 0.00 0.00 71 1008.6
20260904040058 77 247 0.0 0.0 0.00 0.00 0.00 71 1008.6
20260904034556 77 247 0.0 0.0 0.00 0.00 0.14 71 1008.6
20260904033055 77 247 0.0 0.0 0.00 0.00 0.14 71 1009.0
20260904031555 77 243 0.0 0.0 0.00 0.00 0.14 71 1009.2
20260904030106 77 243 0.0 0.0 0.00 0.00 0.14 71 1009.2
20260904024554 77 226 0.0 0.0 0.00 0.00 0.14 71 1009.2
20260904023054 77 226 0.0 0.0 0.00 0.00 0.14 71 1009.2
20260904021554 77 226 0.0 0.0 0.00 0.00 0.14 71 1009.1
20260904020053 77 226 0.0 0.0 0.00 0.00 0.14 71 1008.9
20260904014605 78 226 0.0 0.0 0.00 0.00 0.14 71 1008.8
20260904013051 78 226 0.0 0.0 0.00 0.00 0.14 71 1008.5
20260904011550 78 226 0.0 0.0 0.00 0.00 0.14 72 1008.5
20260904010050 78 226 0.0 0.0 0.00 0.00 0.14 72 1008.4
20260904004550 78 226 0.0 0.0 0.00 0.00 0.14 73 1008.3
20260904003049 79 226 0.0 0.0 0.00 0.00 0.14 73 1008.3
20260904001549 80 226 0.0 0.0 0.00 0.00 0.14 74 1008.3
20260904000050 81 226 0.0 0.0 0.00 0.00 0.13 75 1008.3
20260903234548 81 226 0.0 0.0 0.00 0.00 0.13 76 1008.2
20260903233050 81 228 0.0 0.0 0.00 0.00 0.13 76 1008.1
20260903231547 81 228 0.0 0.0 0.00 0.00 0.13 76 1008.2
20260903230049 81 228 0.0 0.0 0.00 0.00 0.13 76 1008.1
20260903224545 81 228 0.0 0.0 0.00 0.00 0.13 76 1007.7
20260903223044 81 228 0.0 0.0 0.00 0.00 0.13 75 1007.5
20260903221542 81 228 0.0 0.0 0.00 0.00 0.13 76 1008.0
20260903220047 81 229 0.0 0.0 0.00 0.00 0.13 76 1008.1
20260903214544 81 229 0.0 0.0 0.00 0.00 0.13 76 1008.1
20260903213038 80 229 0.0 0.0 0.00 0.00 0.13 77 1008.6
20260903211538 79 225 0.0 0.0 0.00 0.00 0.13 76 1008.2
20260903210043 80 224 0.0 0.0 0.00 0.00 0.13 77 1008.3
20260903204536 80 207 0.0 0.0 0.00 0.00 0.13 77 1008.5
20260903203036 80 296 0.0 0.0 0.00 0.00 0.13 77 1008.2
20260903201535 80 309 0.0 0.0 0.00 0.00 0.12 77 1008.1
20260903200033 79 212 0.0 0.0 0.00 0.00 0.12 76 1008.5
20260903194530 79 212 0.0 0.0 0.00 0.00 0.12 76 1008.4
20260903193029 78 242 0.0 0.0 0.00 0.00 0.12 74 1008.5
20260903191541 78 238 0.0 0.0 0.00 0.00 0.12 72 1008.8
20260903190024 77 237 0.0 0.0 0.00 0.00 0.12 70 1008.8
20260903184527 76 58 0.0 0.0 0.00 0.00 0.12 71 1009.1
20260903183021 75 58 0.0 0.0 0.00 0.00 0.12 70 1009.4
20260903181520 75 58 0.0 0.0 0.00 0.00 0.12 71 1009.5
20260903180024 75 58 0.0 0.0 0.00 0.00 0.12 71 1009.9
20260903174520 74 58 0.0 0.0 0.00 0.00 0.11 71 1010.4
20260903173021 74 68 0.0 0.0 0.00 0.00 0.11 71 1009.9
20260903171518 74 68 0.0 0.0 0.00 0.00 0.11 71 1009.4
20260903170019 73 51 0.0 0.0 0.00 0.00 0.11 71 1009.9
20260903164518 73 74 0.0 0.0 0.00 0.00 0.11 71 1010.9
20260903163017 73 71 0.0 0.0 0.00 0.00 0.11 71 1010.0
20260903161517 73 354 0.0 0.0 0.00 0.00 0.11 71 1009.4
20260903160017 73 354 0.0 0.0 0.00 0.00 0.10 71 1009.0
20260903154516 72 354 0.0 0.0 0.00 0.00 0.10 71 1009.0
20260903153016 72 59 0.0 0.0 0.00 0.00 0.09 71 1009.5